Location: Unspecified
(0.0000°N, 0.0000°E)
Time: 10:25:36
(UTC+02:00)

SWIFT - Visible Passes

Search period start: 25 April 2014 00:00
Search period end: 05 May 2014 00:00
Orbit: 562 x 580 km, 20.6° (Epoch: 24 April)

Date Brightness Start Highest point End Pass type
(mag) Time Alt. Az. Time Alt. Az. Time Alt. Az.
30 Apr 4.5 20:52:36 10° S 20:54:19 12° SSE 20:55:04 12° SSE visible
01 May 4.2 20:51:35 10° SSW 20:54:20 16° SSE 20:55:18 15° SE visible
02 May 3.8 20:50:54 10° SSW 20:54:18 22° SSE 20:55:37 20° SE visible
03 May 3.3 20:50:22 10° SW 20:54:14 32° SSE 20:55:59 23° ESE visible
04 May 5.1 07:09:39 10° N 07:11:39 13° NNE 07:13:38 10° NE visible
04 May 2.7 20:49:58 10° SW 20:54:07 47° SSE 20:56:25 23° E visible
04 May 5.6 22:32:20 10° W 22:32:27 11° W 22:32:27 11° W visible
